Flag for Canada Weather past 2 weeks in Prince Rupert, British Columbia, Canada

Now
48 °F

Fog.


Feels Like: 45 °F
Forecast: 48 / 57 °F
Wind: 7 mph from West

Location: Prince Rupert

Current Time: May 22, 2015 at 10:09:04 PM

Latest Report: May 22, 2015 at 9:00 PM


Visibility: 3 mi

Pressure: 30.06 "Hg

Humidity: 100%

Dew point: 48 °F

Location of Prince RupertLocation

Historic Weather in Prince Rupert — Graph

°F

Prince Rupert temperature yesterday

Maximum temperature yesterday: 54 °F (at 3:00 PM)
Minimum temperature yesterday: 48 °F (at 12:00 AM)
Average temperature yesterday: 50 °F

Past Weeks' High & Low Weather Summary

 TemperatureHumidityPressure
High66 °F (May 8, 3:00 PM)100% (May 11, 2:00 AM)30.19 "Hg (May 11, 2:00 AM)
Low41 °F (May 12, 5:00 AM)26% (May 8, 4:00 PM)29.78 "Hg (May 12, 6:00 PM)
Average51 °F88%30.04 "Hg
* Reported May 7 9:00 PM — May 22 9:00 PM, Prince Rupert, Weather by CustomWeather, © 2015

Note: Actual official high and low records may vary slightly from our data, if they occured in-between our weather recording intervals... More about our weather records

Advertising

Prince Rupert weather history for previous 24 hours

 ConditionsComfort  
Time TempWeatherWind HumidityBarometerVisibility
9:00 PM
Fri, May 22
48 °FFog.7 mph100%30.06 "Hg3 mi
8:00 PM50 °FFog.6 mph94%30.05 "Hg4 mi
7:50 PM50 °FFog.8 mph94%30.05 "Hg5 mi
7:00 PM50 °FFog.5 mph94%30.04 "Hg6 mi
6:53 PM50 °FFog.6 mph94%30.04 "Hg6 mi
6:00 PM50 °FFog.8 mph94%30.05 "Hg6 mi
5:00 PM50 °FFog.7 mph94%30.05 "Hg5 mi
4:00 PM50 °FLow clouds.7 mph94%30.05 "Hg7 mi
3:00 PM52 °FFog.6 mph94%30.04 "Hg4 mi
2:00 PM52 °FFog.8 mph94%30.03 "Hg5 mi
1:51 PM52 °FFog.6 mph94%30.03 "Hg4 mi
1:00 PM52 °FLow clouds.6 mph94%30.03 "Hg9 mi
12:00 PM52 °FLow clouds.3 mph94%30.03 "Hg9 mi
11:00 AM52 °FLow clouds.2 mph94%30.02 "Hg9 mi
10:03 AM50 °FFog.3 mph100%30.02 "Hg6 mi
9:03 AM50 °FFog.7 mph100%30.01 "Hg6 mi
8:00 AM50 °FFog.7 mph94%30.00 "Hg4 mi
7:00 AM48 °FFog.2 mph100%30.00 "Hg2 mi
6:59 AM48 °FFog.3 mph100%30.00 "Hg2 mi
6:00 AM50 °FFog.2 mph94%30.00 "Hg2 mi
5:46 AM48 °FFog.3 mph100%30.00 "Hg2 mi
5:00 AM48 °FFog.5 mph100%30.00 "Hg2 mi
4:00 AM48 °FFog.3 mph100%30.00 "Hg2 mi
3:00 AM48 °FFog.3 mph100%30.00 "Hg2 mi
2:00 AM48 °FFog.2 mph100%30.01 "Hg1 mi
1:03 AM48 °FFog.3 mph100%30.00 "Hg2 mi
12:00 AM48 °FFog.2 mph100%30.00 "Hg3 mi
11:00 PM
Thu, May 21
48 °FFog.2 mph100%30.00 "Hg4 mi
10:00 PM50 °FFog.5 mph94%30.00 "Hg5 mi
Weather by CustomWeather, © 2015

See weather overviewHow to use our weather pages